Regional Weather Roundup
Issued by NWS

Home | Current Version | Previous Version | Graphics & Text | Print | Product List | Glossary On
Versions: 1 2 3 4 5 6 7 8 9 10 11 12 13 14 15 16 17 18 19 20 21 22 23 24 25 26 27 28 29 30 31 32 33 34 35 36 37 38 39 40 41 42 43 44 45 46 47 48 49 50
000
ASUS45 KSLC 281510
RWRUT

UTAH REGIONAL WEATHER ROUNDUP
NATIONAL WEATHER SERVICE SALT LAKE CITY UT
900 AM MDT WED SEP 28 2016

UTZ001>011-023>025-281600-

NORTHERN UTAH

CITY           SKY/WX    TMP DP  RH WIND       PRES   REMARKS
BRIGHAM CITY     N/A     52  46  80 CALM      30.21R
DUGWAY         SUNNY     54  49  82 NE3       30.21R
HILL AFB       SUNNY     57  42  58 E16       30.20S
LOGAN          SUNNY     49  47  93 CALM      30.22R
OGDEN          SUNNY     60  45  57 SW5       30.19R
PROVO AIRPORT  SUNNY     54  45  71 CALM      30.24R
SALT LAKE CITY SUNNY     61  49  64 SE5       30.19R
VERNAL         SUNNY     54  46  74 CALM      30.31R
WENDOVER       SUNNY     54  45  71 NE3       30.20R
HEBER CITY     SUNNY     46  41  81 CALM      30.30R
WEST JORDAN    SUNNY     61  48  62 S9        30.21R

$$

UTZ012>022-026-027-281600-

SOUTHERN/CENTRAL UTAH

CITY           SKY/WX    TMP DP  RH WIND       PRES   REMARKS
BLANDING       SUNNY     62  34  34 NE8       30.37R
BRYCE CANYON   PTSUNNY   49  35  58 N3        30.37S
CEDAR CITY     CLOUDY    57  37  47 S3        30.24R
DELTA          SUNNY     55  43  62 CALM      30.23R
MILFORD        MOSUNNY   54  35  48 W3        30.22S
MOAB/CYNLANDS  SUNNY     63  39  41 SE7       30.22R
PRICE          SUNNY     59  42  53 CALM      30.29R
ST GEORGE      MOSUNNY   66  41  39 CALM      30.13S

$$

REGIONAL REPORTS     COLORADO/ARIZONA

CITY           SKY/WX    TMP DP  RH WIND       PRES   REMARKS
CRAIG, CO      SUNNY     46  38  73 CALM      30.37R
GRAND JUNCTION SUNNY     61  39  44 SE14      30.27R
RIFLE          SUNNY     52  42  69 CALM      30.33R
MONTROSE       SUNNY     54  38  54 SE6       30.34R
CORTEZ         SUNNY     53  39  59 CALM      30.32R
PAGE, AZ       SUNNY     67  43  41 CALM      30.19R
GRAND CANYON   MOSUNNY   59  43  55 E5        30.31R
KINGMAN        CLOUDY    71  46  40 CALM      30.11R
FLAGSTAFF      LGT RAIN  48  46  93 VRB3      30.34R

$$

REGIONAL REPORTS    NEVADA/IDAHO/WYOMING

CITY           SKY/WX    TMP DP  RH WIND       PRES   REMARKS
LAS VEGAS, NV  PTSUNNY   73  47  39 SE5       30.04R
ELY            SUNNY     47  31  53 S9        30.28S
ELKO           SUNNY     49  38  65 E6        30.20R
POCATELLO, ID  SUNNY     49  44  83 NE3       30.21R
BURLEY         SUNNY     50  44  80 NE8       30.15R
EVANSTON, WY   SUNNY     52  35  52 E9        30.36R
ROCK SPRINGS   SUNNY     51  38  60 E5        30.38R

$$



USA.gov is the U.S. government's official web portal to all federal, state and local government web resources and services.